Weather History for KAEX - October, 2014

Change the Weather History Date:

Friday, October 31, 2014

  Actual Average Record
Temperature  
Mean Temperature 58 °F 63 °F  
Max Temperature 73 °F 75 °F 89 °F (1951)
Min Temperature 43 °F 50 °F 29 °F (1917)
Degree Days  
Heating Degree Days 7 5  
Month to date heating degree days 35 71  
Since 1 July heating degree days 35 73  
Cooling Degree Days 0 2  
Month to date cooling degree days 161 136  
Year to date cooling degree days 2470 2486  
Growing Degree Days 10 (Base 50)    
Moisture  
Dew Point 46 °F    
Average Humidity 66    
Maximum Humidity 93    
Minimum Humidity 38    
Precipitation  
Precipitation 0.00 in 0.06 in 3.29 in (1979)
Month to date precipitation 4.55 5.18  
Year to date precipitation 36.77 44.31  
Snow  
Snow 0.00 in - 0.00 in ()
Month to date snowfall 0.0  
Since 1 July snowfall 0.0  
Since 1 September snowfall 0.0  
Snow Depth 0.00 in    
Sea Level Pressure  
Sea Level Pressure 30.14 in    
Wind  
Wind Speed 7 mph (North)    
Max Wind Speed 18 mph    
Max Gust Speed 26 mph    
Visibility 10 miles    
Events      
T = Trace of Precipitation, MM = Missing Value Source: NWS Daily Summary

Daily Weather History Graph

Daily Weather History Graph

Search for Another Location

Airport or City:

Trip Planner

Search our weather history database for the weather conditions in past years. The results will help you decide how hot, cold, wet, or windy it might be!

Date:

Astronomy

Oct. 31, 2014 Rise Set
Actual Time 7:25 AM CDT 6:22 PM CDT
Civil Twilight 7:00 AM CDT 6:47 PM CDT
Nautical Twilight 6:31 AM CDT 7:15 PM CDT
Astronomical Twilight 6:03 AM CDT 7:44 PM CDT
Moon 2:12 PM CDT (10/31) 12:41 AM CDT (10/31)
Length of Visible Light 11h 47m
Length of Day
10h 56m
First Quarter, 57% of the Moon is Illuminated
Oct 31
First Quarter
Nov 6
Full
Nov 14
Last Quarter
Nov 22
New
Nov 29
First Quarter

Hourly Weather History & Observations

Time (CDT) Temp. Dew Point Humidity Pressure Visibility Wind Dir Wind Speed Gust Speed Precip Events Conditions
12:53 AM 50.0 °F 48.0 °F 93% 30.09 in 10.0 mi Calm Calm - N/A   Mostly Cloudy
1:53 AM 51.1 °F 46.9 °F 86% 30.08 in 10.0 mi Calm Calm - N/A   Clear
2:53 AM 48.9 °F 46.0 °F 90% 30.07 in 10.0 mi Calm Calm - N/A   Clear
3:53 AM 46.9 °F 45.0 °F 93% 30.06 in 10.0 mi Calm Calm - N/A   Clear
4:53 AM 46.0 °F 45.0 °F 96% 30.06 in 10.0 mi Calm Calm - N/A   Clear
5:53 AM 46.9 °F 45.0 °F 93% 30.07 in 10.0 mi Calm Calm - N/A   Clear
6:53 AM 46.0 °F 45.0 °F 96% 30.09 in 8.0 mi Calm Calm - N/A   Clear
7:53 AM 46.0 °F 45.0 °F 96% 30.11 in 8.0 mi Calm Calm - N/A   Clear
8:53 AM 54.0 °F 48.9 °F 83% 30.13 in 10.0 mi NNW 4.6 mph - N/A   Clear
9:53 AM 60.1 °F 48.9 °F 67% 30.15 in 10.0 mi North 8.1 mph - N/A   Clear
10:53 AM 66.9 °F 46.9 °F 49% 30.14 in 10.0 mi NNW 11.5 mph - N/A   Clear
11:53 AM 70.0 °F 45.0 °F 41% 30.14 in 10.0 mi North 12.7 mph 21.9 mph N/A   Clear
12:53 PM 71.1 °F 44.1 °F 38% 30.13 in 10.0 mi North 12.7 mph 23.0 mph N/A   Clear
1:53 PM 73.0 °F 46.0 °F 38% 30.12 in 10.0 mi North 13.8 mph 20.7 mph N/A   Clear
2:53 PM 71.1 °F 46.0 °F 41% 30.11 in 10.0 mi North 12.7 mph 20.7 mph N/A   Clear
3:53 PM 71.1 °F 46.0 °F 41% 30.12 in 10.0 mi North 13.8 mph 20.7 mph N/A   Clear
4:53 PM 70.0 °F 45.0 °F 41% 30.14 in 10.0 mi NNW 17.3 mph 21.9 mph N/A   Partly Cloudy
5:53 PM 66.9 °F 46.0 °F 47% 30.16 in 10.0 mi North 10.4 mph - N/A   Partly Cloudy
6:53 PM 62.1 °F 46.9 °F 58% 30.19 in 10.0 mi North 8.1 mph - N/A   Clear
7:53 PM 59.0 °F 46.9 °F 64% 30.22 in 10.0 mi NNW 6.9 mph - N/A   Scattered Clouds
8:53 PM 57.9 °F 46.0 °F 65% 30.23 in 10.0 mi North 6.9 mph - N/A   Clear
9:53 PM 55.9 °F 46.0 °F 69% 30.25 in 10.0 mi North 4.6 mph - N/A   Clear
10:53 PM 53.1 °F 45.0 °F 74% 30.27 in 10.0 mi NNW 5.8 mph - N/A   Clear
11:53 PM 54.0 °F 44.1 °F 69% 30.29 in 10.0 mi North 11.5 mph - N/A   Clear